Weather History for Olivia, MN

Change the Weather History Date:

Saturday, March 30, 2013

  Actual Average (KRWF) Record (KRWF)
Temperature  
Mean Temperature 37 °F -  
Max Temperature 41 °F 48 °F 82 °F (1968)
Min Temperature 33 °F 29 °F -7 °F (1969)
Degree Days  
Heating Degree Days 28    
Moisture  
Dew Point 34 °F    
Average Humidity 89    
Maximum Humidity 100    
Minimum Humidity 75    
Precipitation  
Precipitation 0.01 in - - ()
Sea Level Pressure  
Sea Level Pressure 29.91 in    
Wind  
Wind Speed 11 mph (West)    
Max Wind Speed 17 mph    
Max Gust Speed 21 mph    
Visibility 5 miles    
Events Fog , Rain , Thunderstorm    
Averages and records for this station are not official NWS values.
T = Trace of Precipitation, MM = Missing Value Source: NWS Daily Summary

Daily Weather History Graph

Daily Weather History Graph

Search for Another Location

Airport:

Trip Planner

Search our weather history database for the weather conditions in past years. The results will help you decide how hot, cold, wet, or windy it might be!

Date:

Astronomy

Mar. 30, 2013 Rise Set
Actual Time 7:04 AM CDT 7:45 PM CDT
Civil Twilight 6:34 AM CDT 8:15 PM CDT
Nautical Twilight 5:59 AM CDT 8:50 PM CDT
Astronomical Twilight 5:23 AM CDT 9:26 PM CDT
Moon No Moon Rise 8:50 AM CDT (3/30)
Length of Visible Light 13h 40m
Length of Day
12h 41m
Waning Gibbous, 86% of the Moon is Illuminated
Mar 30
Waning Gibbous
Apr 2
Last Quarter
Apr 10
New
Apr 18
First Quarter
Apr 25
Full

Hourly Weather History & Observations

Time (CDT) Temp. Windchill Dew Point Humidity Pressure Visibility Wind Dir Wind Speed Gust Speed Precip Events Conditions
12:11 AM 41.0 °F 33.1 °F 35.6 °F 81% 29.96 in 10.0 mi SSE 15.0 mph - N/A   Clear
12:30 AM 41.0 °F 34.3 °F 35.6 °F 81% 29.95 in 10.0 mi SSE 11.5 mph 19.6 mph N/A   Clear
12:51 AM 41.0 °F 33.5 °F 33.8 °F 76% 29.93 in 10.0 mi SSE 13.8 mph - N/A Thunderstorm Clear
1:11 AM 41.0 °F 33.5 °F 33.8 °F 76% 29.92 in 10.0 mi SSE 13.8 mph - N/A   Clear
1:31 AM 39.2 °F 31.2 °F 33.8 °F 81% 29.91 in 10.0 mi SSE 13.8 mph 18.4 mph N/A   Clear
1:50 AM 39.2 °F 32.0 °F 33.8 °F 81% 29.90 in 10.0 mi SSE 11.5 mph - N/A   Clear
2:11 AM 41.0 °F 34.3 °F 33.8 °F 76% 29.90 in 10.0 mi SSE 11.5 mph - N/A   Clear
2:31 AM 41.0 °F 34.3 °F 33.8 °F 76% 29.90 in 10.0 mi SSE 11.5 mph - N/A   Clear
2:51 AM 41.0 °F 34.7 °F 33.8 °F 76% 29.90 in 10.0 mi SSE 10.4 mph - N/A   Clear
3:10 AM 39.2 °F 33.0 °F 33.8 °F 81% 29.90 in 10.0 mi SSE 9.2 mph - N/A   Clear
3:31 AM 39.2 °F 35.0 °F 32.0 °F 75% 29.92 in 10.0 mi South 5.8 mph - N/A   Clear
3:51 AM 39.2 °F 34.2 °F 33.8 °F 81% 29.90 in 10.0 mi South 6.9 mph - N/A   Scattered Clouds
4:11 AM 39.2 °F 33.6 °F 33.8 °F 81% 29.89 in 10.0 mi SSE 8.1 mph - N/A   Scattered Clouds
4:30 AM 39.2 °F 35.9 °F 33.8 °F 81% 29.89 in 10.0 mi SSE 4.6 mph - N/A   Clear
4:51 AM 39.2 °F 35.0 °F 33.8 °F 81% 29.89 in 10.0 mi SSE 5.8 mph - N/A   Clear
5:11 AM 39.2 °F 35.0 °F 33.8 °F 81% 29.89 in 10.0 mi SSE 5.8 mph - N/A   Clear
5:30 AM 37.4 °F 32.8 °F 33.8 °F 87% 29.89 in 10.0 mi South 5.8 mph - N/A   Scattered Clouds
5:51 AM 39.2 °F 37.0 °F 33.8 °F 81% 29.89 in 10.0 mi South 3.5 mph - N/A   Mostly Cloudy
6:11 AM 39.2 °F 37.0 °F 35.6 °F 87% 29.89 in 10.0 mi SW 3.5 mph - N/A   Mostly Cloudy
6:30 AM 35.6 °F 30.7 °F 33.8 °F 93% 29.89 in 7.0 mi SSW 5.8 mph - N/A Rain Light Rain
6:51 AM 35.6 °F 29.9 °F 33.8 °F 93% 29.89 in 7.0 mi SW 6.9 mph - N/A Rain Light Rain
7:11 AM 35.6 °F 31.7 °F 33.8 °F 93% 29.89 in 7.0 mi SW 4.6 mph - 0.01 in   Mostly Cloudy
7:31 AM 35.6 °F 29.9 °F 33.8 °F 93% 29.89 in 7.0 mi SW 6.9 mph - 0.01 in   Mostly Cloudy
7:51 AM 39.2 °F 32.5 °F 35.6 °F 87% 29.89 in 7.0 mi WSW 10.4 mph - 0.01 in   Overcast
8:11 AM 39.2 °F 31.6 °F 35.6 °F 87% 29.90 in 7.0 mi West 12.7 mph - N/A   Mostly Cloudy
8:30 AM 39.2 °F 31.6 °F 35.6 °F 87% 29.90 in 7.0 mi West 12.7 mph - N/A   Scattered Clouds
8:51 AM 37.4 °F 30.3 °F 33.8 °F 87% 29.90 in 3.0 mi NW 10.4 mph 16.1 mph N/A   Mostly Cloudy
9:10 AM 35.6 °F 28.6 °F 33.8 °F 93% 29.91 in 0.2 mi WNW 9.2 mph - N/A Fog Fog
9:31 AM 35.6 °F 28.0 °F 32.0 °F 87% 29.90 in 0.2 mi WNW 10.4 mph - N/A Fog Fog
9:51 AM 33.8 °F 23.9 °F 32.0 °F 93% 29.91 in 0.2 mi NW 15.0 mph 19.6 mph N/A Fog Fog
10:11 AM 33.8 °F 25.3 °F 32.0 °F 93% 29.92 in 0.2 mi WNW 11.5 mph 18.4 mph N/A Fog Fog
10:30 AM 33.8 °F 26.4 °F 32.0 °F 93% 29.92 in 0.2 mi WNW 9.2 mph 16.1 mph N/A Fog Fog
10:51 AM 33.8 °F 25.8 °F 32.0 °F 93% 29.92 in 0.2 mi WNW 10.4 mph - N/A Fog Fog
11:10 AM 33.8 °F 25.8 °F 32.0 °F 93% 29.92 in 0.2 mi WNW 10.4 mph - N/A Fog Fog
11:30 AM 35.6 °F 29.2 °F 33.8 °F 93% 29.93 in 0.2 mi WNW 8.1 mph - N/A Fog Fog
11:51 AM 35.6 °F 28.0 °F 35.6 °F 100% 29.93 in 0.2 mi NW 10.4 mph - N/A Fog Fog
12:10 PM 35.6 °F 28.0 °F 35.6 °F 100% 29.93 in 0.2 mi NW 10.4 mph 16.1 mph N/A Fog Fog
12:30 PM 35.6 °F 27.5 °F 35.6 °F 100% 29.93 in 0.2 mi NW 11.5 mph 18.4 mph N/A Fog Fog
12:51 PM 35.6 °F 28.6 °F 35.6 °F 100% 29.93 in 0.2 mi WNW 9.2 mph - N/A Fog Fog
1:11 PM 35.6 °F 28.0 °F 35.6 °F 100% 29.92 in 0.2 mi WNW 10.4 mph 16.1 mph N/A Fog Fog
1:31 PM 35.6 °F 28.6 °F 35.6 °F 100% 29.92 in 0.2 mi NW 9.2 mph - N/A Fog Fog
1:50 PM 35.6 °F 28.6 °F 35.6 °F 100% 29.92 in 0.2 mi NW 9.2 mph - N/A Fog Fog
2:10 PM 35.6 °F 28.0 °F 35.6 °F 100% 29.92 in 0.5 mi NW 10.4 mph - N/A Fog Fog
2:31 PM 37.4 °F 30.3 °F 35.6 °F 93% 29.92 in 1.2 mi NW 10.4 mph - N/A   Overcast
2:50 PM 39.2 °F 34.2 °F 37.4 °F 93% 29.92 in 2.0 mi NW 6.9 mph - N/A   Overcast
3:11 PM 39.2 °F 34.2 °F 37.4 °F 93% 29.91 in 2.5 mi NW 6.9 mph - N/A   Overcast
3:30 PM 39.2 °F 31.6 °F 37.4 °F 93% 29.91 in 3.0 mi NW 12.7 mph - N/A   Overcast
3:51 PM 41.0 °F 34.7 °F 37.4 °F 87% 29.91 in 3.0 mi NW 10.4 mph 17.3 mph N/A   Overcast
4:10 PM 41.0 °F 33.5 °F 37.4 °F 87% 29.91 in 4.0 mi NW 13.8 mph 18.4 mph N/A   Overcast
4:30 PM 41.0 °F 34.3 °F 35.6 °F 81% 29.91 in 4.0 mi NW 11.5 mph - N/A   Overcast
4:51 PM 39.2 °F 31.6 °F 35.6 °F 87% 29.92 in 4.0 mi NW 12.7 mph - N/A   Overcast
5:10 PM 39.2 °F 32.0 °F 35.6 °F 87% 29.92 in 4.0 mi NW 11.5 mph - N/A   Mostly Cloudy
5:31 PM 39.2 °F 32.0 °F 35.6 °F 87% 29.91 in 5.0 mi NW 11.5 mph - N/A   Scattered Clouds
5:50 PM 39.2 °F 31.6 °F 35.6 °F 87% 29.91 in 5.0 mi NW 12.7 mph 18.4 mph N/A   Mostly Cloudy
6:11 PM 39.2 °F 31.6 °F 35.6 °F 87% 29.91 in 5.0 mi NW 12.7 mph - N/A   Mostly Cloudy
6:31 PM 39.2 °F 33.0 °F 35.6 °F 87% 29.91 in 4.0 mi NW 9.2 mph - N/A   Scattered Clouds
6:51 PM 37.4 °F 29.8 °F 33.8 °F 87% 29.91 in 4.0 mi NW 11.5 mph - N/A   Clear
7:10 PM 35.6 °F 28.0 °F 33.8 °F 93% 29.91 in 4.0 mi WNW 10.4 mph 16.1 mph N/A   Clear
7:31 PM 35.6 °F 29.2 °F 33.8 °F 93% 29.90 in 4.0 mi WNW 8.1 mph - N/A   Clear
7:51 PM 35.6 °F 29.2 °F 32.0 °F 87% 29.91 in 3.0 mi WNW 8.1 mph - N/A   Mist
8:11 PM 33.8 °F 23.5 °F 32.0 °F 93% 29.91 in 4.0 mi NW 16.1 mph 20.7 mph N/A   Mostly Cloudy
8:31 PM 33.8 °F 26.4 °F 32.0 °F 93% 29.92 in 2.5 mi WNW 9.2 mph - N/A   Overcast
8:51 PM 33.8 °F 24.3 °F 32.0 °F 93% 29.92 in 1.2 mi NW 13.8 mph - N/A   Overcast
9:10 PM 33.8 °F 25.3 °F 32.0 °F 93% 29.92 in 2.0 mi NW 11.5 mph - N/A   Overcast
9:31 PM 33.8 °F 27.7 °F 32.0 °F 93% 29.92 in 2.5 mi WNW 6.9 mph - N/A   Mist
9:50 PM 33.8 °F 26.4 °F 32.0 °F 93% 29.92 in 3.0 mi WNW 9.2 mph - N/A   Mist
10:11 PM 33.8 °F 26.4 °F 32.0 °F 93% 29.92 in 3.0 mi WNW 9.2 mph - N/A   Mist
10:31 PM 33.8 °F 26.4 °F 32.0 °F 93% 29.92 in 3.0 mi WNW 9.2 mph - N/A   Mist
10:50 PM 33.8 °F 26.4 °F 32.0 °F 93% 29.91 in 3.0 mi WNW 9.2 mph - N/A   Mist
11:11 PM 33.8 °F 26.4 °F 32.0 °F 93% 29.91 in 3.0 mi WNW 9.2 mph - N/A   Mist
11:31 PM 33.8 °F 25.3 °F 32.0 °F 93% 29.91 in 3.0 mi WNW 11.5 mph - N/A   Overcast
11:51 PM 33.8 °F 23.2 °F 32.0 °F 93% 29.91 in 1.5 mi NW 17.3 mph 20.7 mph N/A   Overcast